Regional Weather Roundup
Issued by NWS

Home | Current Version | Previous Version | Graphics & Text | Print | Product List | Glossary On
Versions: 1 2 3 4 5 6 7 8 9 10 11 12 13 14 15 16 17 18 19 20 21 22 23 24 25 26 27 28 29 30 31 32 33 34 35 36 37 38 39 40 41 42 43 44 45 46 47 48 49 50
000
ASUS43 KMPX 190510
RWRMN
WEATHER ROUNDUP FOR MINNESOTA
NATIONAL WEATHER SERVICE TWIN CITIES/CHANHASSEN MN
1100 PM CST THU JAN 18 2018


NOTE: "FAIR" INDICATES FEW OR NO CLOUDS BELOW 12,000 FEET WITH NO
SIGNIFICANT WEATHER AND/OR OBSTRUCTIONS TO VISIBILITY. N/A MEANS
CURRENT SKY AND/OR WEATHER CONDITIONS ARE NOT AVAILABLE.

MNZ060>063-068>070-190600-
   Twin Cities Metro

CITY           SKY/WX    TMP DP  RH WIND       PRES   REMARKS
TWIN CITIES    MOCLDY    32  28  85 S6        29.74F WCI  26
ST PAUL        FAIR      27  25  92 SE7       29.76F WCI  19
CRYSTAL        FAIR      30  24  78 S6        29.72F WCI  24
BLAINE         FAIR      34  28  80 S7        29.72F WCI  28
LAKEVILLE      FAIR      27  25  93 CALM      29.75S
EDEN PRAIRIE   FAIR      30  26  85 S8        29.73F WCI  22
SOUTH ST PAUL  FAIR      26  25  96 CALM      29.75F FOG
LAKE ELMO      FAIR      28  27  93 S6        29.75S WCI  22
$$
MNZ001>005-007-008-013>017-022>024-027-028-190600-
   Northwest Minnesota

CITY           SKY/WX    TMP DP  RH WIND       PRES   REMARKS
BEMIDJI        FAIR      26  19  76 S3        29.59F
HALLOCK        FAIR      25  21  86 S16       29.50F WCI  12
ROSEAU         FAIR      27  21  80 S10       29.50S WCI  17
WARROAD        FAIR      27  21  80 S7        29.49F WCI  19
THIEF RVR FALL FAIR      29  24  82 S16       29.55F WCI  17
CROOKSTON      FAIR      27  23  86 S15       29.58R WCI  15
FOSSTON        FAIR      27  21  80 S14       29.59F WCI  15
DETROIT LAKES  FAIR      28  27  93 CALM      29.63F
MOORHEAD       FAIR      28  23  80 S10       29.63F WCI  19
PARK RAPIDS    FAIR      25  19  78 S7        29.61F WCI  17
MAHNOMEN       FAIR      27  23  86 S14       29.60S WCI  15
$$
MNZ006-009>011-018-025>026-190600-
   North Central Minnesota

CITY           SKY/WX    TMP DP  RH WIND       PRES   REMARKS
BAUDETTE       FAIR      25  22  88 S7        29.51F WCI  17
FLAG ISLAND    FAIR      21  19  93 SE13      29.51F WCI   9
INTL FALLS     FAIR      24  21  88 SE5       29.57F WCI  18
WASKISH        FAIR      28  25  86 S5        29.56F WCI  23
BIG FORK       FAIR      27  23  86 S5        29.58F WCI  21
LONGVILLE      FAIR      27  21  80 S5        29.63F WCI  21
GRAND RAPIDS   FAIR      26  22  84 S6        29.65F WCI  19
CRANE LAKE     FAIR      19  19 100 CALM      29.63F
ORR            FAIR      25  21  86 SE3       29.58F
COOK             N/A     25  21  86 S3        29.61F
WALKER         FAIR      28  20  74 SW6       29.61S WCI  21
$$
MNZ012-019>021-037-190600-
   Northeast Minnesota

CITY           SKY/WX    TMP DP  RH WIND       PRES   REMARKS
DULUTH         FAIR      27  23  85 W6        29.65F WCI  20
ELY            FAIR      25  23  93 S3        29.62F
HIBBING        FAIR      17  15  92 CALM      29.63F
EVELETH        FAIR      20  17  87 CALM      29.65F
DULUTH HARBOR  FAIR      28  25  86 S3        29.69F
TWO HARBORS    FAIR      23  18  80 CALM      29.65F
SILVER BAY     FAIR      27  25  93 CALM      29.66
GRAND MARAIS     N/A     32  24  72 W5        29.67F WCI  27
G MARAIS ARPRT CLOUDY    25  19  80 CALM      29.62F
$$
MNZ029>031-032-039>041-046>048-054>057-064-190600-
   West Central Minnesota

CITY           SKY/WX    TMP DP  RH WIND       PRES   REMARKS
FERGUS FALLS   FAIR      28  23  80 SE5       29.66R WCI  23
MORRIS         CLOUDY    28  27  93 S7        29.67F WCI  21
ALEXANDRIA     FAIR      31  26  82 SW6       29.67S WCI  25
ELBOW LAKE     FAIR      28  25  91 S9        29.66F WCI  19
WADENA         FAIR      25  21  86 S3        29.64F
GLENWOOD       FAIR      28  27  93 SW7       29.68F WCI  21
APPLETON       CLOUDY    36  27  69 S6        29.69F
BENSON         CLOUDY    30  27  86 SW6       29.71F WCI  24
ORTONVILLE     CLOUDY    34  25  69 S3        29.69R
MADISON        CLOUDY    36  30  80 S7        29.69F
WILLMAR        FAIR      30  27  86 CALM      29.73S
$$
MNZ033>034-036-042>043-049>051-058-059-190600-
   Central Minnesota

CITY           SKY/WX    TMP DP  RH WIND       PRES   REMARKS
ST CLOUD       FAIR      26  24  92 S3        29.71R
SAUK CENTRE      N/A     27  25  91 S5        29.68F WCI  22
PAYNESVILLE    FAIR      31  28  90 SW7       29.71R WCI  24
AITKIN         FAIR      23  19  86 S3        29.64F
PINE RIVER     FAIR      19  16  86 CALM      29.68F
BRAINERD       FAIR      26  20  77 S6        29.66F WCI  19
STAPLES        FAIR      23  21  93 S3        29.65F
LONG PRAIRIE   FAIR      27  23  86 S5        29.68S WCI  21
LITTLE FALLS   FAIR      23  19  86 CALM      29.69F
LITCHFIELD     FAIR      30  28  93 SW3       29.72S
BUFFALO        FAIR      30  26  85 S5        29.73S WCI  25
MAPLE LAKE     FAIR      31  28  92 MISG      29.72S
HUTCHINSON     FAIR      32  29  88 SW6       29.73F WCI  26
$$
MNZ037-044-045-052-053-190600-
   East Central Minnesota

CITY           SKY/WX    TMP DP  RH WIND       PRES   REMARKS
PRINCETON      FAIR      28  27  93 S3        29.71S
MORA           FAIR      18  14  86 CALM      29.71F
CAMBRIDGE      FAIR      28  21  74 S5        29.72S WCI  23
RUSH CITY      FAIR      25  22  89 S5        29.71F WCI  19
MOOSE LAKE     FAIR      23  21  93 CALM      29.67S
HINCKLEY       FAIR      21  21 100 CALM      29.70F
CLOQUET        FAIR      28  21  74 CALM      29.66F
MCGREGOR       FAIR      25  21  86 S3        29.65F
$$
MNZ071>073-080-081-089-090-097-098-190600-
   Southwest Minnesota

CITY           SKY/WX    TMP DP  RH WIND       PRES   REMARKS
MONTEVIDEO     CLOUDY    34  27  75 SW7       29.70F WCI  28
GRANITE FALLS  CLOUDY    34  30  85 S7        29.73S WCI  28
CANBY          CLOUDY    38  29  68 CALM      29.71S
MARSHALL       CLOUDY    38  27  64 S5        29.72F
REDWOOD FALLS  CLOUDY    30  27  88 SW6       29.73F WCI  24
OLIVIA         CLOUDY    30  28  93 SW6       29.72S WCI  24
PIPESTONE      CLOUDY    30  25  80 SW9       29.74F WCI  22
WINDOM         CLOUDY    34  18  51 S13       29.76F WCI  25
WORTHINGTON    CLOUDY    32  27  81 SW16      29.77F WCI  21
JACKSON        CLOUDY    32  27  80 SW13      29.78F WCI  22
SLAYTON        CLOUDY    32  28  84 SW15      29.75F WCI  22
$$
MNZ065>067-074>077-082>085-091>093-190600-
   South Central Minnesota

CITY           SKY/WX    TMP DP  RH WIND       PRES   REMARKS
MANKATO        FAIR      31  27  85 S9        29.76F WCI  23
NEW ULM        CLOUDY    32  27  80 SW7       29.74F WCI  26
ST JAMES       CLOUDY    34  28  80 S8        29.77F WCI  27
FAIRMONT       CLOUDY    32  26  78 SW12      29.79S WCI  23
GLENCOE        FAIR      30  28  93 S6        29.73F WCI  24
FARIBAULT      FAIR      30  25  80 S9        29.77S WCI  22
OWATONNA       FAIR      28  25  86 S7        29.78S WCI  21
WASECA         FAIR      30  27  86 S13       29.79S WCI  20
ALBERT LEA     FAIR      28  21  74 SW9       29.80R WCI  20
$$
MNZ078>079-086>088-094>096-190600-
   Southeast Minnesota

CITY           SKY/WX    TMP DP  RH WIND       PRES   REMARKS
ROCHESTER      FAIR      26  21  81 SW13      29.79S WCI  15
RED WING       FAIR      28  21  74 S5        29.77F WCI  23
STANTON        FAIR      30  25  80 SW13      29.75F WCI  20
DODGE CENTER   FAIR      27  21  80 SW16      29.78S WCI  14
WINONA         FAIR      30  23  74 CALM      29.82S
AUSTIN         FAIR      27  21  80 S8        29.81S WCI  18
PRESTON        FAIR      27  21  80 SW9       29.81R WCI  17
$$
ABBREVIATIONS USED IN REMARKS
   TC - TEMPERATURES IN CELSIUS
  WCI - WIND CHILL INDEX
   HX - HEAT INDEX
  VSB - VISIBILITY
$$




USA.gov is the U.S. government's official web portal to all federal, state and local government web resources and services.